FW7079 Weather Reports


time (UTC)temp
C
wind
direction
speed
KPH
gust
KPH
rain 1hr
cm
rain 24hr
cm
rain mn
cm
humidity
%
barometer
mb
20260906201555 40 0.0 0.0 0.00 0.00 0.00 32 1013.1
20260906194559 40 0.0 0.0 0.00 0.00 0.00 33 1013.6
20260906193103 39 0.0 0.0 0.00 0.00 0.00 34 1013.6
20260906191618 38 0.0 0.0 0.00 0.00 0.00 36 1013.8
20260906184559 38 0.0 0.0 0.00 0.00 0.00 38 1014.3
20260906183056 38 0.0 0.0 0.00 0.00 0.00 37 1014.5
20260906181602 38 0.0 0.0 0.00 0.00 0.00 38 1014.8
20260906180116 38 0.0 0.0 0.00 0.00 0.00 39 1015.0
20260906174559 38 0.0 0.0 0.00 0.00 0.00 40 1015.2
20260906173105 38 0.0 0.0 0.00 0.00 0.00 40 1015.4
20260906171604 38 0.0 0.0 0.00 0.00 0.00 41 1015.7
20260906170112 38 0.0 0.0 0.00 0.00 0.00 41 1016.0
20260906164559 37 0.0 0.0 0.00 0.00 0.00 42 1016.2
20260906163110 36 0.0 0.0 0.00 0.00 0.00 45 1016.3
20260906161601 36 0.0 0.0 0.00 0.00 0.00 48 1016.2
20260906160101 36 0.0 0.0 0.00 0.00 0.00 47 1016.1
20260906154556 35 241 0.0 4.8 0.00 0.00 0.00 49 1016.1
20260906153102 34 0 0.0 3.2 0.00 0.00 0.00 52 1016.0
20260906151602 32 0 0.0 4.8 0.00 0.00 0.00 56 1016.0
20260906150111 32 0 0.0 3.2 0.00 0.00 0.00 57 1016.0
20260906144602 32 223 0.0 0.0 0.00 0.00 0.00 58 1016.0
20260906143104 30 0 0.0 1.6 0.00 0.00 0.00 63 1015.9
20260906141558 28 195 0.0 1.6 0.00 0.00 0.00 68 1015.9
20260906140101 27 0 0.0 0.0 0.00 0.00 0.00 75 1015.8
20260906134558 26 0 0.0 0.0 0.00 0.00 0.00 78 1015.7
20260906133124 25 0 0.0 0.0 0.00 0.00 0.00 79 1015.6
20260906131559 23 0 0.0 0.0 0.00 0.00 0.00 82 1015.5
20260906130115 22 0 0.0 0.0 0.00 0.00 0.00 84 1015.4
20260906124603 21 0 0.0 0.0 0.00 0.00 0.00 85 1015.3
20260906123057 21 0 0.0 0.0 0.00 0.00 0.00 85 1015.2
20260906121602 21 0 0.0 0.0 0.00 0.00 0.00 85 1015.1
20260906120101 21 0 0.0 0.0 0.00 0.00 0.00 84 1015.0
20260906114602 21 0 0.0 0.0 0.00 0.00 0.00 84 1014.8
20260906113058 21 0 0.0 0.0 0.00 0.00 0.00 84 1014.7
20260906111618 21 0 0.0 0.0 0.00 0.00 0.00 84 1014.4
20260906110059 21 0 0.0 0.0 0.00 0.00 0.00 84 1014.3
20260906104602 21 0 0.0 0.0 0.00 0.00 0.00 84 1014.3
20260906103058 21 0 0.0 0.0 0.00 0.00 0.00 83 1014.2
20260906101557 21 0 0.0 0.0 0.00 0.00 0.00 83 1014.1
20260906100057 21 0 0.0 0.0 0.00 0.00 0.00 83 1014.1
20260906094559 22 0 0.0 0.0 0.00 0.00 0.00 82 1014.1
20260906093103 22 0 0.0 0.0 0.00 0.00 0.00 82 1014.0
20260906091601 22 0 0.0 0.0 0.00 0.00 0.00 82 1014.2
20260906084606 22 0 0.0 0.0 0.00 0.00 0.00 81 1014.0
20260906083104 22 0 0.0 0.0 0.00 0.00 0.00 81 1014.0
20260906081600 22 0 0.0 0.0 0.00 0.00 0.00 80 1013.8
20260906080104 22 0 0.0 0.0 0.00 0.00 0.00 79 1013.8
20260906074603 22 0 0.0 0.0 0.00 0.00 0.00 79 1013.9
20260906073106 23 0 0.0 0.0 0.00 0.00 0.00 78 1013.8
20260906071603 23 0 0.0 0.0 0.00 0.00 0.00 78 1013.8
20260906070103 23 0 0.0 0.0 0.00 0.00 0.00 77 1014.0
20260906064558 23 0 0.0 0.0 0.00 0.00 0.00 77 1013.8
20260906063100 23 0 0.0 0.0 0.00 0.00 0.00 77 1013.8
20260906061605 23 0 0.0 0.0 0.00 0.00 0.00 76 1013.9
20260906060105 23 0 0.0 0.0 0.00 0.00 0.00 76 1014.0
20260906054606 24 0 0.0 0.0 0.00 0.00 0.00 75 1013.9
20260906053102 24 0 0.0 0.0 0.00 0.00 0.00 75 1013.8
20260906051611 24 0 0.0 0.0 0.00 0.00 0.00 74 1013.8
20260906044607 24 0 0.0 0.0 0.00 0.00 0.00 73 1013.5
20260906043056 25 0 0.0 0.0 0.00 0.00 0.00 73 1013.6
20260906041557 25 0 0.0 0.0 0.00 0.00 0.00 72 1013.6
20260906040137 25 0 0.0 0.0 0.00 0.00 0.00 71 1013.7
20260906034615 26 0 0.0 0.0 0.00 0.00 0.00 71 1013.7
20260906033106 26 0 0.0 0.0 0.00 0.00 0.00 70 1013.6
20260906031556 26 0 0.0 0.0 0.00 0.00 0.00 69 1013.4
20260906024611 27 0 0.0 0.0 0.00 0.00 0.00 67 1013.3
20260906023103 27 0 0.0 0.0 0.00 0.00 0.00 67 1013.2
20260906021601 27 0 0.0 0.0 0.00 0.00 0.00 65 1013.0
20260906020058 28 0 0.0 0.0 0.00 0.00 0.00 63 1012.8
20260906014601 29 0 0.0 0.0 0.00 0.00 0.00 62 1012.8
20260906013102 30 0 0.0 0.0 0.00 0.00 0.00 59 1012.5
20260906011602 31 0 0.0 0.0 0.00 0.00 0.00 56 1012.4
20260906010106 32 0 0.0 0.0 0.00 0.00 0.00 53 1012.3
20260906004604 33 0 0.0 0.0 0.00 0.00 0.00 49 1012.2
20260906003102 34 0 0.0 0.0 0.00 0.00 0.00 46 1012.1
20260906001609 35 0 0.0 1.6 0.00 0.00 0.00 42 1011.9
20260906000100 36 0 0.0 4.8 0.00 0.00 0.00 40 1012.0
20260905234601 36 136 0.0 8.0 0.00 0.00 0.00 40 1011.9
20260905233104 36 121 0.0 6.4 0.00 0.00 0.00 39 1011.7
20260905231605 37 143 3.2 12.9 0.00 0.00 0.00 38 1011.6
20260905230108 36 176 0.0 3.2 0.00 0.00 0.00 38 1011.6
20260905224615 37 136 1.6 9.7 0.00 0.00 0.00 38 1011.6
20260905223106 37 152 1.6 6.4 0.00 0.00 0.00 40 1011.5
20260905221605 37 148 1.6 8.0 0.00 0.00 0.00 39 1011.5
20260905220059 37 0 1.6 8.0 0.00 0.00 0.00 38 1011.7
20260905214558 37 50 1.6 8.0 0.00 0.00 0.00 39 1011.9
20260905213105 38 142 1.6 9.7 0.00 0.00 0.00 38 1012.1
20260905211559 38 155 3.2 0.0 0.00 0.00 0.00 37 1012.2
20260905210105 38 0.0 0.0 0.00 0.00 0.00 38 1012.5
20260905204606 38 0.0 0.0 0.00 0.00 0.00 38 1012.7
20260905203059 38 0.0 0.0 0.00 0.00 0.00 38 1012.9